IU1JVO-13 Weather Reports


Display with metric or nautical units.
time (UTC)temp
F
wind
direction
speed
MPH
gust
MPH
rain 1hr
in
rain 24hr
in
rain mn
in
humidity
%
barometer
mb
20260504043117 54 222 0.0 0.0 0.00 0.00 0.00 77 1018.1
20260504043016 54 222 0.0 0.0 0.00 0.00 0.00 77 1018.0
20260504042518 54 222 0.0 1.0 0.00 0.00 0.00 77 1018.0
20260504042117 54 222 0.0 1.0 0.00 0.00 0.00 76 1018.0
20260504042016 54 222 0.0 1.0 0.00 0.00 0.00 76 1017.9
20260504041515 54 222 0.0 1.0 0.00 0.00 0.00 77 1018.0
20260504041116 54 222 0.0 1.0 0.00 0.00 0.00 77 1018.0
20260504041015 54 222 0.0 1.0 0.00 0.00 0.00 77 1018.0
20260504040516 54 222 0.0 1.0 0.00 0.00 0.00 77 1018.1
20260504040117 54 222 0.0 1.0 0.00 0.00 0.00 77 1018.1
20260504040018 54 222 0.0 1.0 0.00 0.00 0.00 77 1018.2
20260504035517 54 222 0.0 1.0 0.00 0.00 0.00 77 1018.0
20260504035118 54 222 0.0 1.0 0.00 0.00 0.00 77 1018.0
20260504035017 55 222 0.0 1.0 0.00 0.00 0.00 77 1018.0
20260504034517 54 222 0.0 1.0 0.00 0.00 0.00 77 1018.0
20260504034115 55 222 0.0 0.0 0.00 0.00 0.00 77 1018.0
20260504034024 55 222 0.0 1.0 0.00 0.00 0.00 76 1018.0
20260504034020 55 222 0.0 0.0 0.00 0.00 0.00 77 1018.0
20260504033114 55 222 0.0 1.0 0.00 0.00 0.00 76 1018.1
20260504033016 55 222 0.0 1.0 0.00 0.00 0.00 76 1018.1
20260504032516 55 222 0.0 1.0 0.00 0.00 0.00 77 1018.1
20260504032251 55 222 0.0 1.0 0.00 0.00 0.00 77 1018.2
20260504032235 55 222 0.0 1.0 0.00 0.00 0.00 77 1018.2
20260504031516 55 222 0.0 0.0 0.00 0.00 0.00 76 1018.1
20260504031113 55 222 0.0 0.0 0.00 0.00 0.00 76 1018.1
20260504031017 55 222 0.0 0.0 0.00 0.00 0.00 76 1018.1
20260504030517 55 222 0.0 0.0 0.00 0.00 0.00 76 1018.2
20260504030112 55 222 0.0 0.0 0.00 0.00 0.00 76 1018.3
20260504030017 55 222 0.0 0.0 0.00 0.00 0.00 76 1018.3
20260504025752 55 222 0.0 0.0 0.00 0.00 0.00 76 1018.2
20260504025112 55 222 0.0 0.0 0.00 0.00 0.00 76 1018.3
20260504025016 55 222 0.0 0.0 0.00 0.00 0.00 76 1018.3
20260504024516 55 222 0.0 0.0 0.00 0.00 0.00 77 1018.3
20260504024111 55 222 0.0 2.0 0.00 0.00 0.00 76 1018.3
20260504024016 55 222 0.0 2.0 0.00 0.00 0.00 76 1018.3
20260504023516 55 222 0.0 2.0 0.00 0.00 0.00 76 1018.5
20260504023249 55 222 0.0 2.0 0.00 0.00 0.00 75 1018.6
20260504023233 55 222 0.0 2.0 0.00 0.00 0.00 76 1018.6
20260504022516 55 222 0.0 2.0 0.00 0.00 0.00 75 1018.7
20260504022114 55 222 0.0 4.0 0.00 0.00 0.00 75 1018.9
20260504022013 55 222 0.0 4.0 0.00 0.00 0.00 74 1018.9
20260504021526 55 222 0.0 4.0 0.00 0.00 0.00 75 1018.9
20260504021519 55 222 0.0 4.0 0.00 0.00 0.00 74 1018.6
20260504021237 55 222 0.0 4.0 0.00 0.00 0.00 75 1018.9
20260504020513 55 215 0.0 4.0 0.00 0.00 0.00 76 1018.9
20260504020252 55 208 0.0 2.0 0.00 0.00 0.00 76 1018.7
20260504020015 55 208 0.0 1.0 0.00 0.00 0.00 77 1018.7
20260504015109 55 214 0.0 1.0 0.00 0.00 0.00 78 1018.6
20260504015011 55 214 0.0 1.0 0.00 0.00 0.00 77 1018.6
20260504014511 55 214 0.0 1.0 0.00 0.00 0.00 77 1018.9
20260504014107 55 213 0.0 1.0 0.00 0.00 0.00 77 1018.7
20260504014012 55 213 0.0 1.0 0.00 0.00 0.00 77 1018.7
20260504013512 55 212 0.0 1.0 0.00 0.00 0.00 76 1018.9
20260504013252 55 213 0.0 1.0 0.00 0.00 0.00 76 1018.7
20260504013236 55 213 0.0 1.0 0.00 0.00 0.00 76 1018.7
20260504012512 55 213 0.0 1.0 0.00 0.00 0.00 76 1018.7
20260504012108 55 213 0.0 1.0 0.00 0.00 0.00 76 1019.0
20260504012011 55 213 0.0 1.0 0.00 0.00 0.00 75 1019.0
20260504011511 56 215 0.0 1.0 0.00 0.00 0.00 75 1018.9
20260504011107 56 208 0.0 2.0 0.00 0.00 0.00 75 1019.1
20260504011012 56 206 0.0 2.0 0.00 0.00 0.00 75 1019.1
20260504010512 56 196 0.0 2.0 0.00 0.00 0.00 75 1019.1
20260504010108 56 196 0.0 2.0 0.00 0.00 0.00 75 1019.1
20260504010010 55 197 0.0 2.0 0.00 0.00 0.00 75 1019.1
20260504005511 56 202 0.0 2.0 0.00 0.00 0.00 75 1019.2
20260504005247 56 206 0.0 2.0 0.00 0.00 0.00 75 1019.0
20260504005229 56 206 0.0 2.0 0.00 0.00 0.00 75 1019.0
20260504004519 56 206 0.0 2.0 0.00 0.00 0.00 74 1018.9
20260504004230 56 204 0.0 2.0 0.00 0.00 0.00 73 1019.1
20260504003509 56 213 0.0 2.0 0.00 0.00 0.00 73 1019.1
20260504003107 56 222 0.0 2.0 0.00 0.00 0.00 72 1019.0
20260504003008 56 224 0.0 2.0 0.00 0.00 0.00 73 1019.1
20260504002508 57 226 0.0 5.0 0.00 0.00 0.00 72 1019.1
20260504002106 56 226 0.0 5.0 0.00 0.00 0.00 72 1019.2
20260504002008 56 226 0.0 6.0 0.00 0.00 0.00 73 1019.1
20260504001507 56 227 1.0 6.0 0.00 0.00 0.00 73 1019.1
20260504001107 57 228 1.0 6.0 0.00 0.00 0.00 74 1019.2
20260504001006 57 229 2.0 6.0 0.00 0.00 0.00 74 1019.2
20260504000506 56 226 2.0 6.0 0.00 0.00 0.00 74 1019.3
20260504000241 56 221 0.0 5.0 0.00 0.00 0.00 76 1019.3
20260504000223 56 222 1.0 6.0 0.00 0.00 0.00 75 1019.3
20260503235505 56 219 0.0 2.0 0.00 0.00 0.00 75 1019.4
20260503235110 56 218 0.0 2.0 0.00 0.00 0.00 75 1019.6
20260503235005 56 218 0.0 2.0 0.00 0.00 0.00 75 1019.6
20260503234507 56 214 0.0 1.0 0.00 0.00 0.00 75 1019.8
20260503234106 56 213 0.0 1.0 0.00 0.00 0.00 74 1019.7
20260503234006 56 212 0.0 1.0 0.00 0.00 0.00 75 1019.8
20260503233738 56 212 0.0 1.0 0.00 0.00 0.00 76 1019.9
20260503233107 56 212 0.0 1.0 0.00 0.00 0.00 75 1019.9
20260503233006 56 212 0.0 1.0 0.00 0.00 0.00 75 1019.9
20260503232506 56 212 0.0 1.0 0.00 0.00 0.00 75 1020.0
20260503232107 56 212 0.0 0.0 0.00 0.00 0.00 75 1020.0
20260503232005 56 212 0.0 0.0 0.00 0.00 0.00 74 1020.0
20260503231503 56 212 0.0 0.0 0.00 0.00 0.00 74 1020.0
20260503231248 57 214 0.0 1.0 0.00 0.00 0.00 74 1020.0
20260503231229 57 214 0.0 1.0 0.00 0.00 0.00 74 1020.0
20260503230502 57 216 0.0 1.0 0.00 0.00 0.00 73 1020.1
20260503230107 57 216 0.0 1.0 0.00 0.00 0.00 74 1020.0
20260503230001 57 216 0.0 1.0 0.00 0.00 0.00 74 1020.1
20260503225503 57 216 0.0 1.0 0.00 0.00 0.00 73 1020.1
20260503225107 56 216 0.0 1.0 0.00 0.00 0.00 74 1020.1
20260503225001 56 216 0.0 1.0 0.00 0.00 0.00 74 1020.1
20260503224501 56 216 0.0 1.0 0.00 0.00 0.00 75 1020.0
20260503224106 57 216 0.0 1.0 0.00 0.00 0.00 75 1020.1
20260503224001 57 216 0.0 1.0 0.00 0.00 0.00 75 1020.1
20260503223503 57 216 0.0 1.0 0.00 0.00 0.00 75 1020.0
20260503223240 57 216 0.0 1.0 0.00 0.00 0.00 75 1019.9
20260503223222 57 216 0.0 1.0 0.00 0.00 0.00 75 1019.9
20260503222500 57 216 0.0 1.0 0.00 0.00 0.00 73 1019.9
20260503222235 57 216 0.0 1.0 0.00 0.00 0.00 74 1020.0
20260503222219 57 216 0.0 1.0 0.00 0.00 0.00 74 1019.9
20260503221458 57 217 0.0 1.0 0.00 0.00 0.00 75 1020.1
20260503221106 57 212 0.0 1.0 0.00 0.00 0.00 74 1020.0
20260503220958 57 204 0.0 1.0 0.00 0.00 0.00 75 1020.0
20260503220458 57 116 0.0 1.0 0.00 0.00 0.00 74 1020.1
20260503220239 57 91 0.0 1.0 0.00 0.00 0.00 73 1020.1
20260503220222 57 91 0.0 1.0 0.00 0.00 0.00 74 1020.0
20260503215456 57 91 0.0 1.0 0.00 0.00 0.00 74 1020.1
20260503215109 57 91 0.0 1.0 0.00 0.00 0.00 74 1020.1
20260503214955 57 91 0.0 1.0 0.00 0.00 0.00 74 1020.2
20260503214458 57 91 0.0 0.0 0.00 0.00 0.00 74 1020.1
20260503214107 57 91 0.0 0.0 0.00 0.00 0.00 73 1020.2
20260503213957 57 91 0.0 0.0 0.00 0.00 0.00 73 1020.1
20260503213457 58 91 0.0 0.0 0.00 0.00 0.00 72 1020.1
20260503213106 58 91 0.0 0.0 0.00 0.00 0.00 72 1020.1
20260503212956 58 91 0.0 0.0 0.00 0.00 0.00 72 1020.1
20260503212456 58 91 0.0 0.0 0.00 0.00 0.00 72 1020.1
20260503212107 58 91 0.0 0.0 0.00 0.00 0.00 72 1020.1
20260503211958 58 91 0.0 0.0 0.00 0.00 0.00 72 1020.1
20260503211728 58 91 0.0 0.0 0.00 0.00 0.00 71 1020.1
20260503211105 58 91 0.0 0.0 0.00 0.00 0.00 71 1020.1
20260503210957 58 91 0.0 0.0 0.00 0.00 0.00 71 1020.1
20260503210456 58 91 0.0 0.0 0.00 0.00 0.00 71 1020.0
20260503210105 58 91 0.0 0.0 0.00 0.00 0.00 71 1020.0
20260503205956 58 91 0.0 0.0 0.00 0.00 0.00 72 1020.0
20260503205456 58 91 0.0 0.0 0.00 0.00 0.00 71 1020.0
20260503205105 58 91 0.0 1.0 0.00 0.00 0.00 72 1019.9
20260503204956 58 91 0.0 1.0 0.00 0.00 0.00 71 1019.8
20260503204455 58 91 0.0 1.0 0.00 0.00 0.00 71 1019.9
20260503204105 58 91 0.0 1.0 0.00 0.00 0.00 72 1019.9
20260503203957 58 91 0.0 1.0 0.00 0.00 0.00 71 1020.1
20260503203455 58 91 0.0 1.0 0.00 0.00 0.00 71 1020.0
20260503203105 58 91 0.0 1.0 0.00 0.00 0.00 71 1019.8
20260503202956 58 91 0.0 1.0 0.00 0.00 0.00 71 1019.8
20260503202455 58 91 0.0 1.0 0.00 0.00 0.00 70 1019.8
20260503202105 58 91 0.0 1.0 0.00 0.00 0.00 69 1019.8
20260503201955 58 91 0.0 1.0 0.00 0.00 0.00 70 1019.8
20260503201455 58 91 0.0 1.0 0.00 0.00 0.00 69 1019.7
20260503201105 58 91 0.0 1.0 0.00 0.00 0.00 70 1019.7
20260503200954 58 91 0.0 1.0 0.00 0.00 0.00 70 1019.7
20260503200505 59 91 0.0 1.0 0.00 0.00 0.00 69 1019.9
20260503200459 58 91 0.0 1.0 0.00 0.00 0.00 69 1019.7
20260503200217 59 91 0.0 1.0 0.00 0.00 0.00 69 1019.9
20260503195447 59 91 0.0 1.0 0.00 0.00 0.00 69 1019.8
20260503195103 59 91 0.0 1.0 0.00 0.00 0.00 69 1019.8
20260503194949 59 91 0.0 1.0 0.00 0.00 0.00 70 1019.8
20260503194446 59 91 0.0 1.0 0.00 0.00 0.00 69 1019.8
20260503194226 59 91 0.0 1.0 0.00 0.00 0.00 68 1019.7
20260503194209 59 91 0.0 1.0 0.00 0.00 0.00 69 1019.8
20260503193447 60 91 0.0 1.0 0.00 0.00 0.00 68 1019.8
20260503193103 60 91 0.0 1.0 0.00 0.00 0.00 68 1019.7
20260503192946 60 91 0.0 1.0 0.00 0.00 0.00 68 1019.7
20260503192717 60 91 0.0 1.0 0.00 0.00 0.00 68 1019.8
20260503192103 60 91 0.0 1.0 0.00 0.00 0.00 67 1019.7
20260503191946 60 91 0.0 1.0 0.00 0.00 0.00 68 1019.7
20260503191445 60 91 0.0 2.0 0.00 0.00 0.00 67 1019.7
20260503191104 60 91 0.0 2.0 0.00 0.00 0.00 67 1019.7
20260503190945 60 91 0.0 2.0 0.00 0.00 0.00 68 1019.7
20260503190445 60 93 0.0 2.0 0.00 0.00 0.00 69 1019.7
20260503190221 61 99 0.0 2.0 0.00 0.00 0.00 68 1019.7
20260503190208 60 98 0.0 2.0 0.00 0.00 0.00 68 1019.6
20260503185446 61 104 0.0 0.0 0.00 0.00 0.00 67 1019.6
20260503185103 61 104 0.0 0.0 0.00 0.00 0.00 68 1019.4
20260503184946 61 104 0.0 0.0 0.00 0.00 0.00 68 1019.4
20260503184445 61 104 0.0 3.0 0.00 0.00 0.00 67 1019.5
20260503184218 61 104 0.0 3.0 0.00 0.00 0.00 65 1019.4
20260503184210 61 104 0.0 3.0 0.00 0.00 0.00 66 1019.5
20260503183716 61 99 0.0 3.0 0.00 0.00 0.00 65 1019.5
20260503183102 61 86 1.0 4.0 0.00 0.00 0.00 64 1019.4
20260503182946 61 79 1.0 4.0 0.00 0.00 0.00 66 1019.4
20260503182446 61 53 1.0 4.0 0.00 0.00 0.00 64 1019.3
20260503182102 62 40 1.0 4.0 0.00 0.00 0.00 64 1019.3
20260503181946 62 28 1.0 4.0 0.00 0.00 0.00 64 1019.3
20260503181446 62 260 0.0 4.0 0.00 0.00 0.00 65 1019.3
20260503181102 62 251 0.0 1.0 0.00 0.00 0.00 68 1019.4
20260503180948 62 251 0.0 1.0 0.00 0.00 0.00 68 1019.4
20260503180447 62 250 0.0 1.0 0.00 0.00 0.00 67 1019.4
20260503175945 62 250 0.0 0.0 0.00 0.00 0.00 68 1019.5
20260503175446 63 250 0.0 0.0 0.00 0.00 0.00 67 1019.5
20260503175104 63 250 0.0 1.0 0.00 0.00 0.00 67 1019.5
20260503174946 63 250 0.0 1.0 0.00 0.00 0.00 66 1019.4
20260503174445 63 250 0.0 2.0 0.00 0.00 0.00 67 1019.4
20260503174104 63 250 0.0 2.0 0.00 0.00 0.00 66 1019.4
20260503173946 63 249 0.0 2.0 0.00 0.00 0.00 66 1019.4
20260503173445 63 248 0.0 2.0 0.00 0.00 0.00 67 1019.3
20260503173102 63 246 0.0 2.0 0.00 0.00 0.00 67 1019.2
20260503172945 63 245 0.0 2.0 0.00 0.00 0.00 66 1019.3
20260503172445 63 244 0.0 2.0 0.00 0.00 0.00 66 1019.2
20260503172103 63 246 0.0 2.0 0.00 0.00 0.00 65 1019.2
20260503171942 63 248 0.0 1.0 0.00 0.00 0.00 65 1019.3
20260503171709 63 248 0.0 1.0 0.00 0.00 0.00 65 1019.1
20260503171219 63 248 0.0 1.0 0.00 0.00 0.00 64 1019.4
20260503171201 63 248 0.0 1.0 0.00 0.00 0.00 64 1019.4
20260503170442 63 253 0.0 1.0 0.00 0.00 0.00 63 1019.4
20260503150939 65 112 0.0 5.0 0.00 0.00 0.00 53 1020.1
20260503150435 65 50 2.0 6.0 0.00 0.00 0.00 53 1020.1
20260503150213 65 4 2.0 6.0 0.00 0.00 0.00 52 1020.2
20260503150156 65 22 2.0 6.0 0.00 0.00 0.00 53 1020.1
20260503131050 65 27 1.0 6.0 0.00 0.00 0.00 53 1020.9
20260503130937 65 33 1.0 6.0 0.00 0.00 0.00 53 1020.8
20260503130436 66 37 1.0 5.0 0.00 0.00 0.00 53 1020.9
20260503120209 66 88 2.0 8.0 0.00 0.00 0.00 52 1021.0
20260503120150 66 94 2.0 8.0 0.00 0.00 0.00 51 1021.0
20260503110702 66 337 2.0 9.0 0.00 0.00 0.00 51 1020.6
20260503090418 63 41 4.0 8.0 0.00 0.00 0.00 57 1020.9
20260503081407 63 144 1.0 2.0 0.00 0.00 0.00 59 1021.2
20260503081045 63 82 0.0 2.0 0.00 0.00 0.00 59 1021.2
20260503080908 63 47 1.0 2.0 0.00 0.00 0.00 57 1021.2
20260503080426 62 144 0.0 2.0 0.00 0.00 0.00 60 1021.0
20260503080422 62 100 0.0 2.0 0.00 0.00 0.00 60 1021.1
20260503080135 62 130 0.0 2.0 0.00 0.00 0.00 59 1021.0
20260503072904 59 218 0.0 2.0 0.00 0.00 0.00 66 1021.1
20260503072405 59 223 1.0 2.0 0.00 0.00 0.00 68 1021.1
20260503072041 59 190 0.0 2.0 0.00 0.00 0.00 69 1021.1
20260503071905 59 168 0.0 2.0 0.00 0.00 0.00 69 1021.1
20260503071403 59 133 0.0 2.0 0.00 0.00 0.00 70 1021.0
20260503071041 59 131 0.0 2.0 0.00 0.00 0.00 69 1020.9
20260503070902 59 131 0.0 2.0 0.00 0.00 0.00 68 1021.1
20260503070402 59 132 0.0 1.0 0.00 0.00 0.00 66 1021.1
20260503055034 57 274 2.0 6.0 0.00 0.00 0.00 66 1020.9
20260503054856 57 294 1.0 3.0 0.00 0.00 0.00 66 1020.9
20260503054358 57 61 0.0 3.0 0.00 0.00 0.00 64 1020.9
20260503054035 57 17 0.0 3.0 0.00 0.00 0.00 63 1020.9
20260503053856 57 355 0.0 5.0 0.00 0.00 0.00 64 1021.0
20260503053625 57 333 0.0 5.0 0.00 0.00 0.00 64 1021.1
20260503053033 57 299 1.0 5.0 0.00 0.00 0.00 65 1021.2
20260503052855 57 283 2.0 5.0 0.00 0.00 0.00 65 1021.2
20260503052355 57 268 2.0 5.0 0.00 0.00 0.00 65 1021.3
20260503052033 57 271 2.0 5.0 0.00 0.00 0.00 63 1021.3
20260503051855 57 270 1.0 5.0 0.00 0.00 0.00 63 1021.3
20260503051356 57 280 2.0 5.0 0.00 0.00 0.00 63 1021.2
20260503051033 57 280 2.0 5.0 0.00 0.00 0.00 63 1021.4
20260503050855 57 285 2.0 5.0 0.00 0.00 0.00 63 1021.4
20260503050355 57 291 1.0 6.0 0.00 0.00 0.00 63 1021.3
20260503050031 56 278 1.0 6.0 0.00 0.00 0.00 64 1021.4
20260503045853 56 273 1.0 6.0 0.00 0.00 0.00 64 1021.3
20260503045351 56 258 1.0 6.0 0.00 0.00 0.00 66 1021.2
20260503045031 56 252 1.0 6.0 0.00 0.00 0.00 66 1021.3
20260503044852 56 230 1.0 6.0 0.00 0.00 0.00 66 1021.3
20260503044350 55 154 0.0 3.0 0.00 0.00 0.00 69 1021.3
20260503044031 55 187 0.0 3.0 0.00 0.00 0.00 68 1021.2
20260503043851 55 223 0.0 4.0 0.00 0.00 0.00 68 1021.3